TAP491 LFBO-LPPT

Flight info

Callsign TAP491
Flight time 1h 31m
Altitude 35000
Route GAUDE DCT LATEK N995 PPN DCT MIRPO DCT DGO DCT NEA DCT ARDID DCT INBOM
Aircraft A320/M-SDE3FGHIJ1RWXYZ/LB1

Departure

Time 2026-05-08 09:20
Airport Toulouse-Blagnac Airport (LFBO)

Arrival

Time 2026-05-08 10:51
Airport Lisbon Humberto Delgado Airport (LPPT)
Time Latitude Longitude Altitude Speed Heading
2026-05-08 08:46 43.63037 1.37249 494 ft 0 kts 54°
2026-05-08 09:05 43.63031 1.37238 481 ft 4 kts 54°
2026-05-08 09:05 43.63016 1.37208 487 ft 4 kts 52°
2026-05-08 09:06 43.63002 1.37185 486 ft 4 kts 43°
2026-05-08 09:06 43.62983 1.37170 485 ft 4 kts 343°
2026-05-08 09:06 43.62964 1.37185 484 ft 1 kts 323°
2026-05-08 09:10 43.62966 1.37183 486 ft 3 kts 323°
2026-05-08 09:10 43.63000 1.37146 490 ft 10 kts 319°
2026-05-08 09:10 43.63007 1.37057 491 ft 10 kts 236°
2026-05-08 09:10 43.62967 1.36985 486 ft 9 kts 233°
2026-05-08 09:11 43.62960 1.36884 494 ft 15 kts 306°
2026-05-08 09:11 43.63042 1.36796 491 ft 14 kts 322°
2026-05-08 09:11 43.63116 1.36719 491 ft 13 kts 323°
2026-05-08 09:11 43.63195 1.36638 486 ft 16 kts 322°
2026-05-08 09:12 43.63281 1.36548 490 ft 15 kts 323°
2026-05-08 09:12 43.63360 1.36466 485 ft 14 kts 323°
2026-05-08 09:12 43.63432 1.36393 488 ft 12 kts 323°
2026-05-08 09:12 43.63495 1.36327 486 ft 11 kts 323°
2026-05-08 09:13 43.63563 1.36257 486 ft 16 kts 322°
2026-05-08 09:13 43.63654 1.36161 486 ft 16 kts 323°
2026-05-08 09:13 43.63737 1.36074 490 ft 14 kts 322°
2026-05-08 09:13 43.63813 1.35996 488 ft 13 kts 323°
2026-05-08 09:14 43.63882 1.35923 491 ft 14 kts 323°
2026-05-08 09:14 43.63975 1.35827 491 ft 17 kts 322°
2026-05-08 09:14 43.64062 1.35736 485 ft 15 kts 323°
2026-05-08 09:14 43.64142 1.35653 487 ft 14 kts 323°
2026-05-08 09:15 43.64213 1.35580 488 ft 12 kts 323°
2026-05-08 09:15 43.64277 1.35514 488 ft 11 kts 323°
2026-05-08 09:15 43.64333 1.35455 490 ft 10 kts 322°
2026-05-08 09:15 43.64397 1.35388 488 ft 12 kts 323°
2026-05-08 09:16 43.64448 1.35313 489 ft 10 kts 296°
2026-05-08 09:16 43.64472 1.35222 490 ft 12 kts 289°
2026-05-08 09:16 43.64499 1.35115 488 ft 11 kts 289°
2026-05-08 09:16 43.64524 1.35019 492 ft 10 kts 289°
2026-05-08 09:17 43.64546 1.34925 486 ft 10 kts 282°
2026-05-08 09:17 43.64529 1.34845 487 ft 8 kts 239°
2026-05-08 09:17 43.64497 1.34785 491 ft 10 kts 233°
2026-05-08 09:17 43.64451 1.34700 489 ft 10 kts 233°
2026-05-08 09:18 43.64402 1.34640 486 ft 9 kts 200°
2026-05-08 09:18 43.64352 1.34657 487 ft 5 kts 143°
2026-05-08 09:18 43.64349 1.34660 487 ft 0 kts 144°
2026-05-08 09:19 43.64331 1.34678 488 ft 16 kts 144°
2026-05-08 09:19 43.64038 1.34982 488 ft 87 kts 143°
2026-05-08 09:19 43.63397 1.35653 491 ft 141 kts 141°
2026-05-08 09:19 43.62622 1.36461 941 ft 151 kts 141°
2026-05-08 09:20 43.61786 1.37297 1677 ft 150 kts 140°
2026-05-08 09:20 43.60914 1.38189 2119 ft 166 kts 141°
2026-05-08 09:20 43.59954 1.39219 2450 ft 184 kts 141°
2026-05-08 09:20 43.58890 1.40344 2739 ft 205 kts 142°
2026-05-08 09:21 43.57679 1.41573 3135 ft 228 kts 143°
2026-05-08 09:21 43.56322 1.42911 3600 ft 250 kts 144°
2026-05-08 09:22 43.46931 1.49212 8785 ft 280 kts 204°
2026-05-08 09:23 43.45448 1.47467 9608 ft 288 kts 235°
2026-05-08 09:23 43.44783 1.44846 10323 ft 300 kts 261°
2026-05-08 09:23 43.44568 1.41873 10568 ft 323 kts 259°
2026-05-08 09:23 43.43865 1.38900 10752 ft 341 kts 239°
2026-05-08 09:24 43.42324 1.36367 11105 ft 351 kts 223°
2026-05-08 09:24 43.40582 1.33967 11758 ft 356 kts 225°
2026-05-08 09:24 43.38883 1.31476 12526 ft 358 kts 226°
2026-05-08 09:24 43.37196 1.28940 13287 ft 361 kts 227°
2026-05-08 09:25 43.35498 1.26378 13952 ft 364 kts 227°
2026-05-08 09:25 43.33774 1.23800 14547 ft 368 kts 227°
2026-05-08 09:25 43.32227 1.20986 15153 ft 371 kts 238°
2026-05-08 09:25 43.31111 1.17765 15737 ft 377 kts 250°
2026-05-08 09:26 43.30507 1.14242 16308 ft 383 kts 262°
2026-05-08 09:26 43.30452 1.10564 16852 ft 388 kts 271°
2026-05-08 09:26 43.30580 1.06842 17411 ft 392 kts 271°
2026-05-08 09:26 43.30690 1.03093 17972 ft 394 kts 269°
2026-05-08 09:27 43.30441 0.99340 18447 ft 396 kts 257°
2026-05-08 09:27 43.29603 0.95735 18928 ft 398 kts 245°
2026-05-08 09:27 43.28225 0.92438 19424 ft 399 kts 233°
2026-05-08 09:27 43.26364 0.89612 19916 ft 401 kts 221°
2026-05-08 09:28 43.24134 0.87291 20379 ft 404 kts 216°
2026-05-08 09:28 43.21841 0.85046 20847 ft 406 kts 216°
2026-05-08 09:28 43.19533 0.82788 21318 ft 409 kts 216°
2026-05-08 09:28 43.17213 0.80515 21774 ft 411 kts 217°
2026-05-08 09:29 43.14910 0.78257 22222 ft 414 kts 217°
2026-05-08 09:29 43.12567 0.75959 22674 ft 416 kts 216°
2026-05-08 09:29 43.10206 0.73643 23103 ft 419 kts 216°
2026-05-08 09:29 43.07832 0.71318 23523 ft 421 kts 216°
2026-05-08 09:30 43.05443 0.68980 23882 ft 423 kts 217°
2026-05-08 09:30 43.03228 0.66335 24236 ft 424 kts 227°
2026-05-08 09:30 43.01424 0.63153 24600 ft 424 kts 238°
2026-05-08 09:30 43.00104 0.59552 24997 ft 426 kts 248°
2026-05-08 09:31 42.99296 0.55653 25355 ft 428 kts 258°
2026-05-08 09:31 42.98897 0.51618 25687 ft 430 kts 261°
2026-05-08 09:31 42.98525 0.47553 26031 ft 432 kts 261°
2026-05-08 09:31 42.98148 0.43481 26380 ft 433 kts 261°
2026-05-08 09:32 42.97766 0.39393 26701 ft 434 kts 261°
2026-05-08 09:32 42.97382 0.35295 27008 ft 437 kts 261°
2026-05-08 09:32 42.96996 0.31170 27285 ft 439 kts 261°
2026-05-08 09:32 42.96609 0.27030 27603 ft 441 kts 261°
2026-05-08 09:33 42.96221 0.22873 27920 ft 442 kts 260°
2026-05-08 09:33 42.95829 0.18708 28156 ft 443 kts 260°
2026-05-08 09:33 42.95433 0.14528 28463 ft 444 kts 260°
2026-05-08 09:33 42.95037 0.10364 28899 ft 442 kts 260°
2026-05-08 09:34 42.94642 0.06214 29332 ft 440 kts 260°
2026-05-08 09:34 42.94247 0.02086 29780 ft 438 kts 260°
2026-05-08 09:34 42.93851 -0.02023 30203 ft 436 kts 259°
2026-05-08 09:34 42.93453 -0.06124 30535 ft 436 kts 259°
2026-05-08 09:35 42.93052 -0.10227 30841 ft 435 kts 259°
2026-05-08 09:35 42.92650 -0.14309 31230 ft 433 kts 259°
2026-05-08 09:35 42.92249 -0.18376 31627 ft 431 kts 259°
2026-05-08 09:35 42.91849 -0.22418 31983 ft 430 kts 259°
2026-05-08 09:36 42.91450 -0.26449 32361 ft 428 kts 259°
2026-05-08 09:36 42.91050 -0.30468 32752 ft 426 kts 259°
2026-05-08 09:36 42.90653 -0.34465 33097 ft 425 kts 259°
2026-05-08 09:36 42.90256 -0.38447 33426 ft 423 kts 259°
2026-05-08 09:37 42.89858 -0.42413 33723 ft 422 kts 259°
2026-05-08 09:37 42.89462 -0.46368 34025 ft 421 kts 259°
2026-05-08 09:37 42.89064 -0.50322 34337 ft 420 kts 259°
2026-05-08 09:37 42.88666 -0.54263 34662 ft 419 kts 259°
2026-05-08 09:38 42.88267 -0.58187 34893 ft 418 kts 258°
2026-05-08 09:38 42.87458 -0.66058 34962 ft 420 kts 258°
2026-05-08 09:39 42.86509 -0.73909 34958 ft 420 kts 256°
2026-05-08 09:39 42.85428 -0.81746 34964 ft 422 kts 256°
2026-05-08 09:40 42.84350 -0.89617 34966 ft 423 kts 256°
2026-05-08 09:40 42.83299 -0.97507 34956 ft 423 kts 256°
2026-05-08 09:41 42.82249 -1.05397 34960 ft 423 kts 256°
2026-05-08 09:41 42.81194 -1.13272 34952 ft 423 kts 256°
2026-05-08 09:42 42.80305 -1.19828 34958 ft 423 kts 256°
2026-05-08 09:42 42.79063 -1.29000 34948 ft 424 kts 256°
2026-05-08 09:43 42.77987 -1.36895 34950 ft 425 kts 256°
2026-05-08 09:43 42.77076 -1.43523 34951 ft 425 kts 256°
2026-05-08 09:44 42.75981 -1.51429 34954 ft 425 kts 256°
2026-05-08 09:44 42.74888 -1.59350 34959 ft 427 kts 255°
2026-05-08 09:45 42.73778 -1.67302 34950 ft 428 kts 255°
2026-05-08 09:45 42.72274 -1.75101 34950 ft 427 kts 249°
2026-05-08 09:46 42.70537 -1.82823 34957 ft 427 kts 249°
2026-05-08 09:46 42.68794 -1.90546 34946 ft 428 kts 249°
2026-05-08 09:47 42.67043 -1.98281 34953 ft 429 kts 249°
2026-05-08 09:47 42.65280 -2.06044 34944 ft 430 kts 249°
2026-05-08 09:48 42.63503 -2.13810 34940 ft 431 kts 249°
2026-05-08 09:48 42.61685 -2.21570 34932 ft 431 kts 248°
2026-05-08 09:49 42.59799 -2.29297 34960 ft 431 kts 248°
2026-05-08 09:49 42.57897 -2.37029 34934 ft 432 kts 247°
2026-05-08 09:50 42.56002 -2.44771 34932 ft 433 kts 248°
2026-05-08 09:50 42.54110 -2.52535 34931 ft 433 kts 247°
2026-05-08 09:51 42.52208 -2.60289 34929 ft 434 kts 247°
2026-05-08 09:51 42.50297 -2.68038 34959 ft 434 kts 247°
2026-05-08 09:52 42.48379 -2.75797 34942 ft 434 kts 247°
2026-05-08 09:52 42.46449 -2.83549 34936 ft 435 kts 246°
2026-05-08 09:53 42.44280 -2.91153 34928 ft 431 kts 241°
2026-05-08 09:53 42.41775 -2.98527 34928 ft 431 kts 241°
2026-05-08 09:54 42.39265 -3.05903 34955 ft 432 kts 240°
2026-05-08 09:54 42.36745 -3.13272 34939 ft 432 kts 240°
2026-05-08 09:55 42.34233 -3.20605 34938 ft 433 kts 240°
2026-05-08 09:55 42.31701 -3.27983 34932 ft 433 kts 240°
2026-05-08 09:56 42.29158 -3.35364 34932 ft 433 kts 240°
2026-05-08 09:56 42.26609 -3.42741 34931 ft 433 kts 240°
2026-05-08 09:57 42.22769 -3.53818 34927 ft 436 kts 239°
2026-05-08 09:57 42.20193 -3.61235 34922 ft 437 kts 239°
2026-05-08 09:58 42.17612 -3.68657 34918 ft 438 kts 239°
2026-05-08 09:58 42.15024 -3.76083 34922 ft 438 kts 239°
2026-05-08 09:59 42.12436 -3.83468 34952 ft 439 kts 239°
2026-05-08 09:59 42.09812 -3.90921 34921 ft 441 kts 239°
2026-05-08 10:00 42.07175 -3.98390 34917 ft 443 kts 239°
2026-05-08 10:00 42.04530 -4.05893 34918 ft 444 kts 239°
2026-05-08 10:01 42.01858 -4.13388 34920 ft 444 kts 238°
2026-05-08 10:01 41.99067 -4.20793 34923 ft 444 kts 237°
2026-05-08 10:02 41.96217 -4.28158 34927 ft 444 kts 237°
2026-05-08 10:02 41.93380 -4.35524 34927 ft 444 kts 237°
2026-05-08 10:03 41.90566 -4.42916 34928 ft 444 kts 237°
2026-05-08 10:03 41.87751 -4.50305 34920 ft 445 kts 238°
2026-05-08 10:04 41.84911 -4.57690 34948 ft 446 kts 237°
2026-05-08 10:04 41.82055 -4.65079 34931 ft 447 kts 237°
2026-05-08 10:05 41.79193 -4.72480 34931 ft 447 kts 237°
2026-05-08 10:05 41.76327 -4.79887 34932 ft 448 kts 237°
2026-05-08 10:06 41.73457 -4.87292 34929 ft 448 kts 237°
2026-05-08 10:06 41.70576 -4.94692 34931 ft 448 kts 237°
2026-05-08 10:07 41.67684 -5.02089 34953 ft 448 kts 237°
2026-05-08 10:07 41.64792 -5.09468 34952 ft 448 kts 238°
2026-05-08 10:08 41.61908 -5.16821 34957 ft 446 kts 238°
2026-05-08 10:08 41.59033 -5.24149 34954 ft 445 kts 238°
2026-05-08 10:09 41.56157 -5.31453 34948 ft 444 kts 237°
2026-05-08 10:09 41.53277 -5.38738 34948 ft 444 kts 238°
2026-05-08 10:10 41.50393 -5.46018 34941 ft 444 kts 237°
2026-05-08 10:10 41.47520 -5.53245 34932 ft 444 kts 237°
2026-05-08 10:11 41.44628 -5.60511 34927 ft 444 kts 237°
2026-05-08 10:11 41.41728 -5.67772 34928 ft 444 kts 238°
2026-05-08 10:12 41.38835 -5.75017 34954 ft 443 kts 238°
2026-05-08 10:12 41.35942 -5.82244 34947 ft 442 kts 237°
2026-05-08 10:13 41.33041 -5.89447 34942 ft 441 kts 237°
2026-05-08 10:13 41.30143 -5.96640 34938 ft 441 kts 237°
2026-05-08 10:14 41.27234 -6.03824 34934 ft 441 kts 237°
2026-05-08 10:14 41.24328 -6.10997 34944 ft 441 kts 237°
2026-05-08 10:15 41.21416 -6.18175 34939 ft 441 kts 237°
2026-05-08 10:15 41.18502 -6.25340 34931 ft 441 kts 237°
2026-05-08 10:16 41.15162 -6.32096 34935 ft 436 kts 230°
2026-05-08 10:16 41.11529 -6.38532 34935 ft 436 kts 230°
2026-05-08 10:17 41.07904 -6.44964 34935 ft 435 kts 230°
2026-05-08 10:17 41.04279 -6.51382 34952 ft 435 kts 230°
2026-05-08 10:18 41.00650 -6.57797 34945 ft 435 kts 230°
2026-05-08 10:18 40.97019 -6.64193 34940 ft 435 kts 230°
2026-05-08 10:19 40.93382 -6.70588 34928 ft 435 kts 231°
2026-05-08 10:20 40.87969 -6.80088 34952 ft 432 kts 231°
2026-05-08 10:20 40.84364 -6.86412 34963 ft 430 kts 231°
2026-05-08 10:21 40.80752 -6.92708 34960 ft 429 kts 231°
2026-05-08 10:21 40.77146 -6.98972 34956 ft 428 kts 231°
2026-05-08 10:22 40.73554 -7.05229 34953 ft 428 kts 231°
2026-05-08 10:22 40.69962 -7.11476 34948 ft 427 kts 231°
2026-05-08 10:23 40.66370 -7.17703 34954 ft 426 kts 232°
2026-05-08 10:23 40.62785 -7.23906 34970 ft 425 kts 232°
2026-05-08 10:24 40.59212 -7.30069 34972 ft 423 kts 232°
2026-05-08 10:24 40.55640 -7.36203 34967 ft 422 kts 232°
2026-05-08 10:25 40.52081 -7.42321 34961 ft 421 kts 232°
2026-05-08 10:25 40.48524 -7.48425 34962 ft 420 kts 232°
2026-05-08 10:26 40.44970 -7.54522 34954 ft 420 kts 232°
2026-05-08 10:26 40.41415 -7.60609 34966 ft 420 kts 232°
2026-05-08 10:27 40.37861 -7.66658 34976 ft 417 kts 232°
2026-05-08 10:27 40.34328 -7.72666 34974 ft 415 kts 232°
2026-05-08 10:28 40.30804 -7.78652 34968 ft 414 kts 232°
2026-05-08 10:28 40.27881 -7.83614 34969 ft 413 kts 232°
2026-05-08 10:29 40.24366 -7.89555 34966 ft 412 kts 232°
2026-05-08 10:29 40.20863 -7.95481 34960 ft 411 kts 232°
2026-05-08 10:30 40.17367 -8.01390 34955 ft 410 kts 232°
2026-05-08 10:30 40.13876 -8.07257 34954 ft 409 kts 232°
2026-05-08 10:31 40.10386 -8.13112 34952 ft 408 kts 232°
2026-05-08 10:31 40.08642 -8.16035 34774 ft 408 kts 232°
2026-05-08 10:31 40.06886 -8.18975 33815 ft 415 kts 232°
2026-05-08 10:31 40.05113 -8.21946 33009 ft 414 kts 232°
2026-05-08 10:32 40.03345 -8.24903 32287 ft 412 kts 232°
2026-05-08 10:32 40.01374 -8.27579 31726 ft 408 kts 221°
2026-05-08 10:32 39.98991 -8.29564 31132 ft 408 kts 208°
2026-05-08 10:32 39.96304 -8.30751 30540 ft 410 kts 195°
2026-05-08 10:33 39.93469 -8.31251 29919 ft 409 kts 192°
2026-05-08 10:33 39.90659 -8.31671 29287 ft 404 kts 192°
2026-05-08 10:33 39.87879 -8.32080 28661 ft 400 kts 192°
2026-05-08 10:33 39.85124 -8.32488 27961 ft 397 kts 192°
2026-05-08 10:34 39.82387 -8.32903 27338 ft 394 kts 192°
2026-05-08 10:34 39.79675 -8.33318 26714 ft 391 kts 192°
2026-05-08 10:34 39.76981 -8.33735 26120 ft 388 kts 192°
2026-05-08 10:34 39.74327 -8.34143 25840 ft 378 kts 192°
2026-05-08 10:35 39.71772 -8.34561 25699 ft 361 kts 195°
2026-05-08 10:35 39.69441 -8.35522 25145 ft 347 kts 209°
2026-05-08 10:35 39.67438 -8.37261 23886 ft 349 kts 225°
2026-05-08 10:35 39.65858 -8.39704 22413 ft 356 kts 234°
2026-05-08 10:36 39.64360 -8.42322 21050 ft 365 kts 234°
2026-05-08 10:36 39.62818 -8.44965 20622 ft 370 kts 233°
2026-05-08 10:36 39.61249 -8.47620 20365 ft 372 kts 233°
2026-05-08 10:36 39.59664 -8.50286 20121 ft 371 kts 233°
2026-05-08 10:37 39.57922 -8.52677 19873 ft 361 kts 220°
2026-05-08 10:37 39.55854 -8.54452 19626 ft 353 kts 213°
2026-05-08 10:37 39.53782 -8.56078 19381 ft 343 kts 213°
2026-05-08 10:37 39.51760 -8.57661 19139 ft 335 kts 213°
2026-05-08 10:38 39.49798 -8.59197 18894 ft 327 kts 213°
2026-05-08 10:38 39.47900 -8.60683 18645 ft 320 kts 213°
2026-05-08 10:38 39.46021 -8.62168 18385 ft 313 kts 214°
2026-05-08 10:38 39.44188 -8.63677 18014 ft 311 kts 215°
2026-05-08 10:39 39.42384 -8.65203 17615 ft 309 kts 215°
2026-05-08 10:39 39.40596 -8.66729 17206 ft 307 kts 216°
2026-05-08 10:39 39.38820 -8.68247 16818 ft 305 kts 216°
2026-05-08 10:39 39.37061 -8.69748 16180 ft 303 kts 215°
2026-05-08 10:40 39.35268 -8.71272 14991 ft 315 kts 215°
2026-05-08 10:40 39.33401 -8.72853 13939 ft 324 kts 214°
2026-05-08 10:40 39.31556 -8.74406 13636 ft 305 kts 214°
2026-05-08 10:40 39.29830 -8.75855 13345 ft 289 kts 214°
2026-05-08 10:41 39.28166 -8.77252 12783 ft 283 kts 214°
2026-05-08 10:41 39.26520 -8.78636 12068 ft 283 kts 214°
2026-05-08 10:41 39.24875 -8.80021 11403 ft 281 kts 214°
2026-05-08 10:41 39.23237 -8.81401 10745 ft 279 kts 213°
2026-05-08 10:42 39.21617 -8.82763 10133 ft 276 kts 213°
2026-05-08 10:42 39.20014 -8.84109 9506 ft 273 kts 213°
2026-05-08 10:42 39.18437 -8.85431 8928 ft 267 kts 213°
2026-05-08 10:42 39.16903 -8.86719 8446 ft 259 kts 213°
2026-05-08 10:43 39.15419 -8.87963 7971 ft 250 kts 213°
2026-05-08 10:43 39.13982 -8.89169 7515 ft 243 kts 213°
2026-05-08 10:43 39.12576 -8.90349 7071 ft 242 kts 213°
2026-05-08 10:43 39.11159 -8.91536 6704 ft 241 kts 213°
2026-05-08 10:44 39.09757 -8.92708 6273 ft 244 kts 212°
2026-05-08 10:44 39.08357 -8.93876 6074 ft 235 kts 212°
2026-05-08 10:44 39.06997 -8.95015 5742 ft 232 kts 213°
2026-05-08 10:44 39.05645 -8.96147 5385 ft 231 kts 212°
2026-05-08 10:45 39.04282 -8.97285 4867 ft 237 kts 212°
2026-05-08 10:45 39.02913 -8.98426 4599 ft 232 kts 212°
2026-05-08 10:45 39.01570 -8.99544 4459 ft 229 kts 212°
2026-05-08 10:45 39.00239 -9.00654 4348 ft 227 kts 212°
2026-05-08 10:46 38.98946 -9.01733 4250 ft 216 kts 212°
2026-05-08 10:46 38.97717 -9.02764 4148 ft 207 kts 212°
2026-05-08 10:46 38.96484 -9.03666 3985 ft 202 kts 205°
2026-05-08 10:46 38.95214 -9.04413 3740 ft 199 kts 202°
2026-05-08 10:47 38.93967 -9.05095 3483 ft 191 kts 202°
2026-05-08 10:47 38.92789 -9.05730 3273 ft 177 kts 202°
2026-05-08 10:47 38.91688 -9.06322 3029 ft 162 kts 201°
2026-05-08 10:47 38.90675 -9.06867 2818 ft 150 kts 201°
2026-05-08 10:48 38.89727 -9.07376 2600 ft 145 kts 202°
2026-05-08 10:48 38.88843 -9.07851 2421 ft 137 kts 201°
2026-05-08 10:48 38.87961 -9.08324 2224 ft 134 kts 201°
2026-05-08 10:48 38.87124 -9.08773 2051 ft 132 kts 201°
2026-05-08 10:49 38.86281 -9.09226 1887 ft 131 kts 198°
2026-05-08 10:49 38.85421 -9.09686 1693 ft 133 kts 202°
2026-05-08 10:49 38.84558 -9.10149 1524 ft 135 kts 199°
2026-05-08 10:49 38.83714 -9.10602 1344 ft 132 kts 200°
2026-05-08 10:50 38.82864 -9.11058 1159 ft 131 kts 199°
2026-05-08 10:50 38.82004 -9.11519 960 ft 134 kts 197°
2026-05-08 10:50 38.81131 -9.11986 793 ft 138 kts 200°
2026-05-08 10:50 38.80244 -9.12465 625 ft 139 kts 202°
2026-05-08 10:51 38.79359 -9.12928 408 ft 134 kts 199°
2026-05-08 10:51 38.78540 -9.13370 363 ft 110 kts 203°
2026-05-08 10:51 38.77993 -9.13667 367 ft 57 kts 202°
2026-05-08 10:51 38.77753 -9.13794 367 ft 38 kts 202°
2026-05-08 10:52 38.77544 -9.13890 364 ft 28 kts 189°
2026-05-08 10:52 38.77355 -9.13895 358 ft 20 kts 177°
2026-05-08 10:52 38.77305 -9.13893 361 ft 0 kts 177°
2026-05-08 10:54 38.77260 -9.13880 355 ft 5 kts 150°
2026-05-08 10:54 38.77246 -9.13856 361 ft 6 kts 113°
2026-05-08 10:54 38.77251 -9.13771 356 ft 12 kts 78°
2026-05-08 10:55 38.77270 -9.13656 351 ft 14 kts 78°
2026-05-08 10:55 38.77292 -9.13520 355 ft 14 kts 79°
2026-05-08 10:55 38.77311 -9.13403 347 ft 13 kts 78°
2026-05-08 10:55 38.77326 -9.13312 338 ft 9 kts 78°
2026-05-08 10:56 38.77283 -9.13249 336 ft 12 kts 165°
2026-05-08 10:56 38.77246 -9.13220 334 ft 6 kts 102°
2026-05-08 10:56 38.77252 -9.13165 335 ft 5 kts 78°
2026-05-08 10:56 38.77254 -9.13153 335 ft 0 kts 78°
2026-05-08 10:57 38.77254 -9.13150 336 ft 0 kts 78°
2026-05-08 10:59 38.77255 -9.13149 336 ft 0 kts 77°